| time (UTC) | temp C | wind direction | speed KPH | gust KPH | rain 1hr cm | rain 24hr cm | rain mn cm | humidity % | barometer mb |
| 20260504040707 | 40 | 0 | 0.0 | 0.0 | 0.00 | 0.00 | 0.00 | 31 | 976.0 |
| 20260504035640 | 40 | 0 | 0.0 | 0.0 | 0.00 | 0.00 | 0.00 | 30 | 976.0 |
| 20260504034615 | 40 | 0 | 0.0 | 0.0 | 0.00 | 0.00 | 0.00 | 31 | 976.0 |
| 20260504033628 | 39 | 0 | 0.0 | 0.0 | 0.00 | 0.00 | 0.00 | 32 | 976.0 |
| 20260504032524 | 39 | 0 | 0.0 | 0.0 | 0.00 | 0.00 | 0.00 | 32 | 976.0 |
| 20260504031458 | 38 | 0 | 0.0 | 0.0 | 0.00 | 0.00 | 0.00 | 33 | 976.0 |
| 20260504030433 | 38 | 0 | 0.0 | 0.0 | 0.00 | 0.00 | 0.00 | 35 | 976.0 |
| 20260504025407 | 37 | 0 | 0.0 | 0.0 | 0.00 | 0.00 | 0.00 | 36 | 977.0 |
| 20260504024343 | 36 | 0 | 0.0 | 0.0 | 0.00 | 0.00 | 0.00 | 37 | 977.0 |
| 20260504023318 | 36 | 0 | 0.0 | 0.0 | 0.00 | 0.00 | 0.00 | 37 | 977.0 |
| 20260504022252 | 36 | 0 | 0.0 | 0.0 | 0.00 | 0.00 | 0.00 | 39 | 977.0 |
| 20260504021226 | 35 | 0 | 0.0 | 0.0 | 0.00 | 0.00 | 0.00 | 41 | 977.0 |
| 20260504020201 | 35 | 0 | 0.0 | 0.0 | 0.00 | 0.00 | 0.00 | 41 | 977.0 |
| 20260504015136 | 35 | 0 | 0.0 | 0.0 | 0.00 | 0.00 | 0.00 | 42 | 977.0 |
| 20260504014110 | 33 | 0 | 0.0 | 0.0 | 0.00 | 0.00 | 0.00 | 44 | 977.0 |
| 20260504013045 | 33 | 0 | 0.0 | 0.0 | 0.00 | 0.00 | 0.00 | 45 | 977.0 |
| 20260504012018 | 32 | 0 | 0.0 | 0.0 | 0.00 | 0.00 | 0.00 | 48 | 977.0 |
| 20260504010953 | 32 | 0 | 0.0 | 0.0 | 0.00 | 0.00 | 0.00 | 47 | 976.0 |
| 20260504005929 | 32 | 0 | 0.0 | 0.0 | 0.00 | 0.00 | 0.00 | 47 | 976.0 |
| 20260504004904 | 32 | 0 | 0.0 | 0.0 | 0.00 | 0.00 | 0.00 | 46 | 976.0 |
| 20260504003839 | 32 | 0 | 0.0 | 0.0 | 0.00 | 0.00 | 0.00 | 48 | 976.0 |
| 20260504002815 | 31 | 0 | 0.0 | 0.0 | 0.00 | 0.00 | 0.00 | 49 | 976.0 |
| 20260504001750 | 32 | 0 | 0.0 | 0.0 | 0.00 | 0.00 | 0.00 | 47 | 976.0 |
| 20260504000725 | 31 | 0 | 0.0 | 0.0 | 0.00 | 0.00 | 0.00 | 48 | 976.0 |
| 20260503235659 | 31 | 0 | 0.0 | 0.0 | 0.00 | 0.00 | 0.00 | 50 | 976.0 |
| 20260503234633 | 31 | 0 | 0.0 | 0.0 | 0.00 | 0.00 | 0.00 | 50 | 976.0 |
| 20260503233608 | 30 | 0 | 0.0 | 0.0 | 0.00 | 0.00 | 0.00 | 52 | 976.0 |
| 20260503232543 | 31 | 0 | 0.0 | 0.0 | 0.00 | 0.00 | 0.00 | 50 | 975.0 |
| 20260503231518 | 30 | 0 | 0.0 | 0.0 | 0.00 | 0.00 | 0.00 | 51 | 975.0 |
| 20260503230453 | 31 | 0 | 0.0 | 0.0 | 0.00 | 0.00 | 0.00 | 50 | 975.0 |
| 20260503225427 | 32 | 0 | 0.0 | 0.0 | 0.00 | 0.00 | 0.00 | 48 | 975.0 |
| 20260503224401 | 32 | 0 | 0.0 | 0.0 | 0.00 | 0.00 | 0.00 | 49 | 975.0 |
| 20260503223337 | 32 | 0 | 0.0 | 0.0 | 0.00 | 0.00 | 0.00 | 49 | 975.0 |
| 20260503222310 | 31 | 0 | 0.0 | 0.0 | 0.00 | 0.00 | 0.00 | 51 | 975.0 |
| 20260503221245 | 31 | 0 | 0.0 | 0.0 | 0.00 | 0.00 | 0.00 | 51 | 975.0 |
| 20260503220220 | 32 | 0 | 0.0 | 0.0 | 0.00 | 0.00 | 0.00 | 50 | 975.0 |
| 20260503215154 | 32 | 0 | 0.0 | 0.0 | 0.00 | 0.00 | 0.00 | 50 | 974.0 |
| 20260503214128 | 32 | 0 | 0.0 | 0.0 | 0.00 | 0.00 | 0.00 | 49 | 974.0 |
| 20260503213102 | 32 | 0 | 0.0 | 0.0 | 0.00 | 0.00 | 0.00 | 50 | 974.0 |
| 20260503212038 | 33 | 0 | 0.0 | 0.0 | 0.00 | 0.00 | 0.00 | 48 | 974.0 |
| 20260503211012 | 33 | 0 | 0.0 | 0.0 | 0.00 | 0.00 | 0.00 | 48 | 974.0 |
| 20260503205947 | 33 | 0 | 0.0 | 0.0 | 0.00 | 0.00 | 0.00 | 48 | 974.0 |
| 20260503204920 | 33 | 0 | 0.0 | 0.0 | 0.00 | 0.00 | 0.00 | 48 | 974.0 |
| 20260503203855 | 33 | 0 | 0.0 | 0.0 | 0.00 | 0.00 | 0.00 | 49 | 974.0 |
| 20260503202829 | 33 | 0 | 0.0 | 0.0 | 0.00 | 0.00 | 0.00 | 48 | 974.0 |
| 20260503201804 | 33 | 0 | 0.0 | 0.0 | 0.00 | 0.00 | 0.00 | 49 | 974.0 |
| 20260503200738 | 33 | 0 | 0.0 | 0.0 | 0.00 | 0.00 | 0.00 | 49 | 974.0 |
| 20260503195712 | 33 | 0 | 0.0 | 0.0 | 0.00 | 0.00 | 0.00 | 47 | 974.0 |
| 20260503194646 | 33 | 0 | 0.0 | 0.0 | 0.00 | 0.00 | 0.00 | 47 | 974.0 |
| 20260503193620 | 33 | 0 | 0.0 | 0.0 | 0.00 | 0.00 | 0.00 | 46 | 974.0 |
| 20260503192554 | 33 | 0 | 0.0 | 0.0 | 0.00 | 0.00 | 0.00 | 45 | 974.0 |
| 20260503191529 | 34 | 0 | 0.0 | 0.0 | 0.00 | 0.00 | 0.00 | 45 | 974.0 |
| 20260503190503 | 33 | 0 | 0.0 | 0.0 | 0.00 | 0.00 | 0.00 | 45 | 974.0 |
| 20260503185437 | 34 | 0 | 0.0 | 0.0 | 0.00 | 0.00 | 0.00 | 45 | 974.0 |
| 20260503184412 | 34 | 0 | 0.0 | 0.0 | 0.00 | 0.00 | 0.00 | 46 | 974.0 |
| 20260503183347 | 35 | 0 | 0.0 | 0.0 | 0.00 | 0.00 | 0.00 | 45 | 974.0 |
| 20260503182320 | 34 | 0 | 0.0 | 0.0 | 0.00 | 0.00 | 0.00 | 46 | 974.0 |
| 20260503181256 | 34 | 0 | 0.0 | 0.0 | 0.00 | 0.00 | 0.00 | 45 | 974.0 |
| 20260503180230 | 35 | 0 | 0.0 | 0.0 | 0.00 | 0.00 | 0.00 | 44 | 974.0 |
| 20260503175203 | 35 | 0 | 0.0 | 0.0 | 0.00 | 0.00 | 0.00 | 43 | 974.0 |
| 20260503174137 | 35 | 0 | 0.0 | 0.0 | 0.00 | 0.00 | 0.00 | 44 | 974.0 |
| 20260503173111 | 35 | 0 | 0.0 | 0.0 | 0.00 | 0.00 | 0.00 | 43 | 974.0 |
| 20260503172045 | 35 | 0 | 0.0 | 0.0 | 0.00 | 0.00 | 0.00 | 43 | 974.0 |
| 20260503171019 | 35 | 0 | 0.0 | 0.0 | 0.00 | 0.00 | 0.00 | 42 | 974.0 |
| 20260503150605 | 36 | 0 | 0.0 | 0.0 | 0.00 | 0.00 | 0.00 | 42 | 974.0 |
| 20260503131125 | 37 | 0 | 0.0 | 0.0 | 0.00 | 0.00 | 0.00 | 37 | 972.0 |
| 20260503110612 | 40 | 0 | 0.0 | 0.0 | 0.00 | 0.00 | 0.00 | 32 | 970.0 |
| 20260503100115 | 40 | 0 | 0.0 | 0.0 | 0.00 | 0.00 | 0.00 | 32 | 970.0 |
| 20260503081133 | 41 | 0 | 0.0 | 0.0 | 0.00 | 0.00 | 0.00 | 26 | 971.0 |
| 20260503080107 | 43 | 0 | 0.0 | 0.0 | 0.00 | 0.00 | 0.00 | 26 | 971.0 |
| 20260503071921 | 42 | 0 | 0.0 | 0.0 | 0.00 | 0.00 | 0.00 | 28 | 972.0 |
| 20260503070854 | 41 | 0 | 0.0 | 0.0 | 0.00 | 0.00 | 0.00 | 28 | 972.0 |
| 20260503054515 | 40 | 0 | 0.0 | 0.0 | 0.00 | 0.00 | 0.00 | 30 | 974.0 |
| 20260503053445 | 42 | 0 | 0.0 | 0.0 | 0.00 | 0.00 | 0.00 | 28 | 974.0 |
| 20260503052419 | 41 | 0 | 0.0 | 0.0 | 0.00 | 0.00 | 0.00 | 29 | 974.0 |
| 20260503051352 | 42 | 0 | 0.0 | 0.0 | 0.00 | 0.00 | 0.00 | 28 | 974.0 |
| 20260503050325 | 41 | 0 | 0.0 | 0.0 | 0.00 | 0.00 | 0.00 | 30 | 974.0 |
| 20260503045259 | 41 | 0 | 0.0 | 0.0 | 0.00 | 0.00 | 0.00 | 29 | 975.0 |
| 20260503044234 | 41 | 0 | 0.0 | 0.0 | 0.00 | 0.00 | 0.00 | 30 | 975.0 |
| 20260503043209 | 40 | 0 | 0.0 | 0.0 | 0.00 | 0.00 | 0.00 | 30 | 975.0 |
| 20260503042145 | 39 | 0 | 0.0 | 0.0 | 0.00 | 0.00 | 0.00 | 32 | 975.0 |
| 20260503041119 | 40 | 0 | 0.0 | 0.0 | 0.00 | 0.00 | 0.00 | 31 | 975.0 |